CAPE
1202 1785 1822 2003 2135 1907 1687 1632 1625 1594 1654 1668 1679 1738 1675 1732 1584 1401 1178 942 864 803 301 86 289 124 11 7 2 100 33 18 24 29 17 12 2 4 32 172 67 32 35
1348 2000 1566 1925 2106 2170 1906 1820 1786 1743 1854 1860 1808 1815 1729 1706 1597 1469 1243 1134 1062 784 198 109 29 20 20 13 42 53 67 53 15 18 21 31 46 15 14 32 44 18 20
1709 1716 1583 1925 2060 2305 2188 2049 2020 2054 2121 2042 1920 1978 1833 1814 1681 1498 1390 1212 1027 699 144 74 21 21 20 8 43 55 17 10 107 48 73 27 31 27 20 38 44 20 18
1828 1818 1962 1828 2070 2349 2264 2105 2114 2304 2258 2007 2002 2113 2063 1871 1803 1704 1377 1070 855 803 178 143 20 19 17 13 9 3 0 0 4 34 23 30 38 43 30 16 11 7 11
1274 1692 1888 1766 1966 2335 2284 2138 2137 2212 2104 1933 2006 2203 2238 2006 1941 1625 1207 892 798 643 101 36 18 17 12 1 0 0 0 0 0 29 21 29 18 16 12 6 5 10 27
1069 1372 1335 1618 1825 2112 2273 2143 2181 2101 1798 1853 1958 2184 2233 2022 1704 1415 918 760 697 542 170 10 9 10 4 0 0 0 0 0 11 13 10 20 21 22 4 0 0 8 28
1013 1488 2168 543 1592 1839 1900 1770 2022 1924 1715 1828 1929 2031 1946 1506 1508 1052 728 592 494 351 190 7 7 5 1 0 0 0 0 0 0 1 4 5 13 13 6 10 12 11 12
1134 1623 1516 350 668 345 230 141 1268 1638 1572 1622 1745 1770 1735 1417 1168 863 709 520 304 206 118 12 9 2 0 0 0 0 0 0 2 2 2 2 14 13 12 11 12 13 15
1207 1138 1101 426 173 52 170 40 87 1278 1362 1430 1475 1402 1239 944 759 838 723 461 245 152 59 4 3 0 0 0 0 0 0 0 6 1 0 3 19 13 14 11 12 13 14
906 777 832 45 3 146 169 10 3 763 941 1047 1086 934 742 624 662 652 678 490 257 140 64 2 0 0 0 0 0 0 0 0 3 1 1 4 14 14 10 9 9 10 10
787 638 677 330 27 16 119 113 190 422 532 771 728 560 458 941 735 660 457 432 346 90 46 24 2 0 0 0 0 0 0 12 12 2 0 21 12 11 12 6 9 8 6
1136 496 595 384 27 11 150 1 89 10 161 820 1227 1053 882 928 668 469 386 331 213 48 34 15 0 0 0 0 0 0 2 3 15 3 1 20 15 13 10 8 8 7 5
674 608 258 404 110 15 103 278 574 14 27 207 990 1081 525 918 832 928 643 460 248 22 0 0 0 0 0 0 0 6 0 0 18 6 2 21 16 16 13 10 7 4 5
491 381 403 415 417 401 374 754 684 208 1 183 1258 909 981 903 656 954 636 284 287 71 0 0 0 6 3 0 0 0 0 10 14 4 8 21 24 13 11 11 9 7 4
373 275 287 351 493 554 431 810 713 331 579 218 452 926 660 475 551 275 312 318 204 172 34 41 0 51 43 2 0 0 1 3 2 2 5 11 23 23 12 12 9 7 6
359 280 156 180 194 309 513 529 663 168 222 204 207 513 858 847 497 108 282 367 312 267 125 98 92 62 43 1 0 0 0 0 6 9 6 7 15 24 22 13 10 7 5
231 168 49 48 130 148 161 274 512 502 383 355 81 218 630 251 255 146 211 340 220 288 431 229 160 36 2 0 0 0 0 2 13 21 7 13 6 11 18 27 25 7 2
268 80 32 3 13 57 66 171 299 108 398 149 130 85 70 64 175 139 99 103 243 232 297 202 115 5 0 0 0 0 0 4 6 13 15 26 12 11 8 21 19 8 1
118 8 5 3 22 35 17 18 112 152 128 169 112 81 75 7 17 9 32 56 240 237 224 178 70 23 0 0 0 0 0 0 0 1 14 31 23 14 7 5 6 7 1
22 9 12 2 10 7 16 23 22 15 89 79 118 27 6 1 11 28 16 84 168 184 181 74 52 10 0 0 0 0 0 0 0 0 2 10 10 13 1 15 0 1 5
12 9 6 13 12 18 7 15 20 18 50 58 89 19 0 0 19 50 42 102 176 74 35 40 61 129 19 24 0 0 0 0 0 0 0 2 2 0 4 1 7 1 0
7 9 2 5 12 10 7 5 10 2 13 29 11 1 0 0 6 47 86 129 144 82 84 115 160 61 34 8 4 0 0 0 0 0 0 0 1 0 0 0 0 1 0
2 6 5 5 17 7 1 2 2 0 1 1 2 3 4 0 4 28 66 147 161 161 149 174 177 126 54 7 38 11 0 0 0 0 0 0 0 0 0 0 0 0 0
40 11 16 8 3 3 1 0 2 0 0 3 2 5 7 8 32 67 88 172 208 193 176 157 128 156 148 35 1 3 26 14 83 36 0 0 0 0 0 0 0 0 0
138 10 11 11 9 13 1 5 0 3 3 3 5 8 16 57 65 85 121 190 252 180 223 231 175 151 125 139 31 3 0 1 32 3 28 0 0 0 0 0 0 2 0
67 2 0 6 2 10 4 4 2 0 3 11 13 6 9 23 48 82 94 179 197 217 218 209 172 117 163 223 190 150 10 18 6 9 4 4 0 0 0 0 0 0 0
CIN
-21 -70 -83 -20 -1 -1 -11 -54 -55 -62 -28 -41 -4 -0 -3 -0 -0 -0 -0 -0 -0 -0 -1 -6 -0 -8 -20 -0 -0 -44 -21 -0 -0 -0 -0 -0 -0 -1 -2 -3 -4 -0 -0
-1 -9 -154 -40 -9 -2 -1 -10 -31 -39 -41 -28 -2 -0 -0 -0 -0 -0 -0 -0 -0 -0 -2 -15 -4 -0 -0 -0 -31 -20 -16 -17 -0 -0 -7 -0 -0 -0 -9 -2 -1 -0 -0
-9 -0 -82 -82 -14 -0 -0 -7 -5 -0 -0 -4 -0 -0 -0 -0 -0 -0 -0 -0 -0 -0 -17 -25 -0 -0 -0 -0 -36 -16 -4 -6 -9 -10 -3 -0 -0 -0 -0 -0 -0 -0 -0
-24 -4 -0 -119 -47 -2 -1 -0 -1 -0 -0 -9 -2 -0 -0 -0 -0 -0 -0 -1 -0 -0 -20 -23 -0 -0 -0 -45 -4 -2 -0 -0 -16 -25 -0 -0 -0 -0 -0 -0 -0 -0 -0
-35 -7 -0 -146 -67 -2 -1 -0 -0 -0 -0 -0 -0 -0 -0 -0 -0 -0 -2 -1 -0 -0 -49 -15 -0 -0 -0 -0 -0 -0 -0 -0 -0 -39 -0 -0 -0 -0 -0 -0 -0 -1 -0
-33 -22 -116 -116 -67 -13 -2 -0 -0 -0 -3 -1 -1 -0 -0 -0 -0 -0 -4 -31 -0 -1 -29 -0 -0 -0 -0 -0 -0 -0 -0 -0 -125 -0 -0 -0 -0 -0 -0 -0 -0 -0 -0
-36 -4 -14 -220 -64 -43 -6 -2 -1 -1 -1 -2 -2 -1 -0 -1 -0 -0 -4 -17 -36 -13 -24 -0 -0 -0 -0 -0 -0 -0 -0 -0 -0 -0 -0 -0 -0 -0 -0 -0 -0 -0 -0
-68 -6 -33 -199 -108 -207 -259 -41 -2 -1 -1 -13 -1 -1 -0 -11 -0 -1 -1 -10 -28 -17 -24 -0 -0 -0 -0 -0 -0 -0 -0 -0 -1 -0 -0 -0 -0 -0 -0 -0 -0 -0 -0
-79 -56 -17 -101 -122 -214 -235 -92 -1 -2 -6 -4 -4 -2 -20 -14 -12 -2 -2 -5 -17 -29 -46 -0 -0 -0 -0 -0 -0 -0 -0 -0 -0 -0 -0 -0 -0 -0 -0 -0 -0 -0 -0
-90 -79 -14 -143 -82 -48 -3 -0 -1 -10 -28 -19 -26 -34 -54 -26 -16 -7 -3 -1 -7 -33 -45 -1 -0 -0 -0 -0 -0 -0 -0 -0 -0 -0 -0 -0 -0 -0 -0 -0 -0 -0 -0
-90 -66 -15 -19 -87 -80 -0 -5 -1 -4 -31 -36 -50 -59 -75 -0 -4 -0 -6 -2 -4 -52 -60 -71 -10 -0 -0 -0 -0 -0 -0 -0 -0 -0 -0 -0 -0 -0 -0 -0 -0 -0 -0
-17 -54 -8 -9 -120 -75 -0 -0 -3 -25 -0 -5 -0 -2 -0 -0 -0 -1 -6 -30 -10 -38 -59 -92 -0 -0 -0 -0 -0 -0 -2 -0 -0 -0 -0 -0 -0 -0 -0 -0 -0 -0 -0
-11 -23 -4 -1 -65 -54 -15 -0 -0 -62 -94 -3 -0 -0 -0 -0 -1 -0 -2 -1 -0 -46 -0 -0 -0 -0 -0 -0 -0 -1 -0 -0 -1 -0 -4 -1 -0 -0 -0 -0 -0 -0 -0
-45 -18 -0 -0 -3 -0 -3 -1 -1 -5 -8 -3 -0 -0 -0 -0 -1 -0 -0 -0 -1 -3 -0 -0 -0 -2 -0 -0 -0 -0 -0 -0 -0 -1 -1 -4 -1 -0 -0 -0 -0 -0 -0
-104 -55 -1 -0 -0 -0 -0 -0 -0 -0 -0 -9 -6 -0 -0 -1 -6 -5 -5 -1 -0 -0 -23 -8 -0 -8 -1 -0 -0 -0 -0 -0 -0 -0 -0 -8 -3 -0 -0 -0 -0 -0 -0
-103 -47 -14 -4 -4 -3 -0 -0 -0 -15 -3 -8 -17 -2 -0 -0 -1 -8 -1 -11 -0 -2 -0 -1 -0 -7 -12 -0 -0 -0 -0 -0 -69 -0 -0 -0 -9 -2 -0 -0 -0 -0 -0
-82 -55 -53 -47 -11 -9 -1 -0 -0 -0 -3 -0 -11 -6 -0 -13 -2 -6 -5 -7 -1 -0 -0 -0 -0 -8 -2 -0 -0 -0 -0 -60 -38 -0 -0 -0 -1 -17 -4 -0 -0 -0 -0
-58 -64 -44 -3 -56 -33 -30 -0 -2 -0 -0 -5 -2 -15 -42 -29 -2 -15 -34 -15 -5 -5 -0 -0 -1 -0 -0 -0 -0 -0 -0 -94 -55 -33 -0 -0 -0 -0 -12 -4 -1 -0 -0
-116 -0 -0 -0 -47 -54 -84 -7 -8 -1 -1 -0 -0 -2 -13 -59 -93 -90 -69 -50 -7 -0 -1 -0 -1 -12 -0 -0 -0 -0 -0 -0 -0 -10 -33 -0 -0 -0 -0 -4 -3 -3 -0
-45 -0 -0 -1 -0 -0 -0 -0 -0 -2 -0 -3 -0 -3 -6 -31 -50 -50 -46 -18 -0 -0 -0 -5 -9 -42 -0 -0 -0 -0 -0 -0 -0 -0 -0 -0 -0 -0 -0 -2 -0 -0 -4
-0 -0 -0 -0 -0 -0 -0 -0 -11 -18 -0 -0 -1 -7 -0 -0 -24 -31 -3 -1 -2 -6 -52 -51 -20 -0 -21 -17 -0 -0 -0 -0 -0 -0 -0 -0 -0 -0 -0 -0 -0 -0 -0
-0 -0 -0 -0 -0 -0 -0 -0 -0 -0 -1 -0 -5 -1 -0 -0 -19 -39 -25 -5 -8 -29 -22 -10 -0 -14 -13 -67 -74 -0 -0 -0 -0 -0 -0 -0 -0 -0 -0 -0 -0 -0 -0
-1 -0 -0 -0 -2 -0 -0 -0 -0 -0 -28 -0 -0 -0 -0 -1 -27 -20 -14 -6 -19 -16 -32 -29 -11 -13 -37 -118 -62 -39 -10 -0 -0 -0 -0 -0 -0 -0 -0 -0 -0 -0 -0
-257 -46 -219 -0 -0 -0 -0 -0 -15 -0 -0 -0 -0 -0 -0 -1 -3 -6 -1 -8 -29 -7 -8 -29 -49 -31 -4 -59 -32 -12 -52 -46 -5 -5 -0 -0 -0 -0 -0 -0 -0 -0 -0
-286 -0 -0 -0 -0 -0 -0 -0 -0 -0 -0 -0 -0 -0 -11 -1 -4 -3 -3 -7 -4 -2 -1 -6 -19 -30 -28 -12 -52 -60 -0 -39 -43 -37 -10 -0 -0 -0 -0 -0 -0 -1 -0
-365 -1 -0 -0 -0 -0 -0 -0 -0 -0 -0 -5 -24 -0 -13 -6 -1 -9 -7 -4 -7 -5 -8 -23 -40 -35 -22 -0 -4 -1 -1 -4 -8 -41 -13 -36 -0 -0 -0 -0 -0 -0 -0
Wind_Speed
2 18 14 10 8 11 12 18 20 21 19 21 18 18 21 20 21 20 20 21 19 21 21 21 19 20 21 22 21 19 20 19 19 19 20 20 19 18 17 17 20 20 22
5 17 13 8 8 13 14 14 17 19 24 23 20 19 18 20 20 22 20 20 20 22 22 22 21 21 21 21 20 19 19 17 17 19 20 19 19 21 24 22 20 19 22
3 7 15 12 9 9 16 18 18 17 19 21 21 20 20 20 21 22 22 19 21 22 22 22 21 21 21 21 18 17 17 15 15 18 17 14 17 22 23 21 20 21 21
3 6 11 13 11 11 17 19 19 19 21 24 23 19 21 21 19 21 24 19 21 22 22 21 21 20 20 19 17 14 13 11 11 13 15 15 16 21 21 20 20 20 19
1 5 8 17 12 11 17 19 21 23 22 19 23 23 22 22 20 21 24 21 21 21 23 21 20 20 18 16 16 10 6 4 4 2 16 13 13 16 19 19 18 19 18
3 2 15 9 14 13 18 22 23 24 24 24 22 23 24 25 23 21 21 26 21 21 22 21 20 19 17 16 13 8 6 7 10 16 15 11 15 18 19 20 19 19 17
4 2 1 5 13 20 22 28 27 26 25 25 24 22 26 23 23 22 22 23 24 21 22 21 20 18 16 15 10 4 3 7 13 14 14 14 14 17 18 18 17 18 19
4 3 2 4 12 9 6 22 27 28 27 27 26 25 25 27 21 22 21 22 23 23 21 20 19 18 17 13 9 4 8 9 12 14 15 13 15 18 19 19 17 18 17
1 5 4 9 11 14 12 11 29 26 28 27 27 26 26 25 24 22 21 22 23 23 22 20 18 17 16 12 7 2 6 10 13 11 14 11 15 17 18 18 18 17 17
4 4 6 7 7 8 11 9 23 23 30 28 27 26 25 24 22 21 20 22 22 23 22 20 18 16 15 10 5 1 6 9 13 12 11 10 17 17 18 18 17 17 17
4 4 5 9 8 4 8 7 13 17 28 27 23 23 21 15 20 21 18 20 22 22 21 20 18 16 14 8 5 8 8 6 9 10 10 13 17 17 17 17 16 16 16
7 6 6 7 7 5 4 9 9 11 5 15 18 19 15 16 15 19 19 19 21 21 21 20 18 17 15 10 7 6 6 5 7 9 9 12 15 16 16 16 16 15 15
3 6 6 7 8 8 8 7 5 6 4 9 18 17 14 13 13 12 11 11 13 18 12 14 14 11 13 10 8 6 8 6 6 9 11 12 15 16 16 15 15 15 15
3 2 7 8 9 10 6 4 5 9 7 5 13 17 13 10 12 11 11 13 12 11 15 13 10 11 11 11 9 8 7 6 6 8 10 10 12 15 15 14 14 14 13
4 3 7 8 9 10 9 5 8 10 11 9 10 13 12 12 10 11 11 12 12 13 13 12 12 10 10 10 8 9 7 6 8 8 8 10 11 13 14 14 14 14 13
5 6 7 7 6 7 8 10 9 7 9 9 9 10 16 11 10 10 11 12 13 12 13 12 12 10 9 9 9 8 7 7 7 11 10 9 9 11 13 14 13 12 12
7 6 7 6 7 6 7 7 8 9 9 11 10 11 14 13 13 11 10 11 11 12 13 11 11 10 10 8 9 8 7 7 6 8 12 10 9 8 9 10 13 12 12
7 8 6 5 6 7 7 7 7 8 10 10 10 10 8 8 13 8 4 5 8 9 9 10 10 10 9 9 8 8 6 7 7 7 8 10 10 9 8 10 11 13 14
9 9 7 5 6 5 4 7 10 9 11 10 11 13 14 10 6 6 3 5 8 8 9 9 9 9 9 9 9 7 7 7 7 7 8 8 11 10 9 14 13 13 14
7 9 9 4 5 5 4 5 7 10 11 13 11 12 16 12 11 6 6 4 10 10 9 9 9 9 9 8 8 8 6 6 6 6 8 8 9 9 9 13 12 12 15
10 10 9 8 8 5 2 1 2 12 13 12 14 18 17 14 13 8 13 11 7 10 9 7 8 10 8 8 7 7 6 4 6 7 7 8 9 11 11 9 9 9 10
12 11 10 8 8 5 3 1 2 2 11 10 10 16 16 16 16 8 7 11 11 8 8 9 9 8 7 6 6 7 5 6 9 9 8 8 9 9 11 12 11 12 10
13 13 12 11 10 7 6 5 3 6 9 9 10 10 13 15 13 11 9 10 10 8 8 10 9 10 8 7 4 4 4 5 7 8 11 9 10 9 9 11 12 13 13
13 13 12 12 11 8 8 6 6 2 5 5 8 8 12 14 15 14 15 11 8 7 10 9 8 8 7 8 6 8 6 2 3 2 8 10 9 11 11 9 11 14 14
14 12 11 12 11 13 7 10 7 7 5 7 7 11 10 10 13 14 12 10 11 12 9 9 9 9 6 6 8 6 6 6 6 5 6 4 9 11 11 11 11 11 14
12 12 12 13 12 12 10 8 8 11 10 9 10 8 8 8 8 10 11 11 10 9 9 8 8 11 9 8 7 7 7 7 8 8 9 8 3 3 6 7 9 12 12
Wind_Direction
96 116 116 134 153 164 172 162 158 152 153 142 145 139 138 135 128 124 122 123 125 123 121 117 112 108 107 104 99 94 93 97 97 96 96 96 93 86 85 97 93 81 77
100 132 132 144 159 174 172 174 166 165 156 147 146 144 141 136 134 131 128 129 130 121 122 120 115 112 109 107 100 99 98 103 109 106 99 88 83 82 74 68 79 83 78
344 143 164 149 173 191 179 175 171 166 150 145 146 148 147 140 139 134 130 133 129 125 124 119 117 117 115 106 100 105 105 112 124 133 100 94 92 88 87 87 87 87 87
332 231 182 153 170 187 182 177 171 164 160 157 150 153 153 143 142 140 130 133 124 127 124 121 119 117 116 110 105 107 118 142 156 150 113 105 99 96 92 92 92 90 89
251 273 235 155 165 190 186 182 175 169 160 160 149 154 153 144 144 139 132 130 128 127 124 124 122 122 117 109 107 110 123 152 215 179 93 103 98 96 97 95 90 80 82
268 289 62 155 169 193 196 185 176 171 160 156 157 158 149 142 147 141 137 131 134 127 126 125 125 122 114 116 116 130 178 217 232 104 98 105 92 92 89 89 94 95 93
300 241 21 311 196 193 211 194 176 168 161 156 153 157 143 145 144 141 138 134 130 127 127 129 125 129 118 115 134 123 338 303 107 112 110 101 106 107 104 103 102 101 98
279 103 202 219 213 211 237 285 180 166 161 156 155 153 145 140 147 141 139 134 129 128 126 128 129 124 119 125 120 152 244 265 116 112 108 108 117 116 113 110 106 99 100
64 244 195 229 228 232 201 243 241 168 159 156 153 152 147 147 147 144 140 135 132 128 129 129 126 124 125 130 142 191 312 311 115 107 115 116 119 116 114 112 107 107 103
191 230 203 204 266 287 217 183 266 173 164 154 153 150 145 146 141 139 139 138 133 130 131 128 125 126 127 130 116 205 267 287 119 130 103 114 124 121 117 116 112 112 109
202 204 231 221 256 279 201 148 240 217 163 153 147 141 142 151 150 148 145 138 134 133 130 128 127 124 119 119 160 222 264 117 128 106 111 136 127 124 121 117 118 116 114
191 194 231 223 228 211 167 157 232 69 85 158 149 153 156 154 151 157 136 136 135 133 131 128 130 131 158 149 174 243 232 120 112 114 117 135 131 128 126 127 126 120 116
173 175 204 209 196 186 198 185 184 124 109 204 153 160 152 155 159 143 142 142 142 141 143 140 143 163 154 161 170 193 115 174 128 113 128 138 137 137 133 134 132 128 125
216 235 192 217 197 200 214 232 173 155 163 211 162 173 152 154 161 158 158 156 155 163 152 153 169 175 162 156 192 122 172 142 137 115 145 143 143 145 143 142 143 138 135
227 174 187 205 215 193 206 192 184 166 155 174 170 172 159 161 158 164 165 153 162 167 167 164 172 165 170 161 155 166 174 137 128 126 150 150 160 158 153 154 157 155 150
197 185 176 195 201 206 204 188 167 161 156 159 170 184 169 160 162 161 174 160 163 164 175 170 176 159 171 170 167 168 167 150 173 144 140 165 168 167 167 165 168 165 160
195 183 192 191 187 199 214 194 172 168 175 170 177 181 171 159 162 164 173 167 163 157 172 176 152 171 174 172 169 164 171 167 172 177 143 160 172 180 176 179 178 179 177
167 186 169 172 234 206 212 224 182 174 176 179 172 172 173 152 162 162 178 159 155 156 168 166 168 172 166 177 167 172 174 180 176 190 175 165 175 180 182 186 188 188 193
179 163 163 200 215 216 201 223 219 194 189 176 175 165 158 147 144 145 131 122 159 163 171 166 176 178 168 178 172 171 177 183 184 182 206 188 178 189 182 177 194 200 203
164 155 170 185 174 205 231 221 213 205 196 190 171 160 155 153 167 165 120 197 185 169 172 168 171 184 178 181 178 170 179 194 178 200 207 203 202 203 200 179 197 209 207
161 164 160 189 170 185 186 242 223 201 195 181 161 155 154 155 171 167 177 172 185 175 170 170 173 191 179 177 177 157 186 196 201 218 211 211 209 208 218 210 192 212 196
172 166 158 185 177 166 134 359 326 46 162 149 133 148 148 156 154 189 154 165 187 168 166 173 182 182 176 168 196 162 193 199 218 222 217 223 218 219 218 221 217 213 212
177 173 170 176 174 164 132 120 69 50 97 119 126 141 141 151 154 184 193 178 187 169 166 180 182 186 165 185 225 192 207 225 196 196 211 218 217 219 227 218 221 230 229
181 178 177 171 170 164 162 135 137 100 104 104 120 118 142 152 174 184 189 185 167 166 179 186 175 191 197 189 199 244 276 1 309 153 199 212 231 224 223 239 225 224 234
171 180 171 165 171 168 184 157 142 136 111 123 125 128 138 155 173 188 195 181 171 205 185 175 183 202 191 210 193 200 233 243 238 269 274 210 208 221 228 219 230 250 223
164 179 176 162 173 168 168 162 156 154 147 145 155 158 159 162 169 188 192 185 175 188 184 183 181 205 212 220 239 206 216 214 222 228 245 243 236 274 240 226 236 235 237